Home > Weather > Cranbrook > Past weeks

Flag for Canada Weather for the Past 2 Weeks in Cranbrook, British Columbia, Canada

Now
57 °F

Broken clouds.


Feels Like: 54 °F
Forecast: 49 / 73 °F
Wind: 13 mph from North

Location: Cranbrook

Current Time: May 6, 2016 at 11:19:40 AM

Latest Report: May 6, 2016 at 10:00 AM


Visibility: 25 mi

Pressure: 30.24 "Hg (27.06 "Hg at 933m altitude)

Humidity: 55%

Dew Point: 41 °F

Location of CranbrookLocation

Historic Weather in Cranbrook — Graph

°F

Cranbrook Temperature Yesterday

Maximum temperature yesterday: 66 °F (at 5:00 PM)
Minimum temperature yesterday: 50 °F (at 5:00 AM)
Average temperature yesterday: 57 °F

High & Low Weather Summary for the Past Weeks

 TemperatureHumidityPressure
High79 °F (May 3, 4:00 PM)94% (Apr 24, 12:00 AM)30.38 "Hg (Apr 24, 12:00 AM)
Low37 °F (Apr 28, 6:00 AM)12% (May 3, 7:00 PM)29.62 "Hg (Apr 22, 3:00 PM)
Average55 °F56%29.97 "Hg
* Reported Apr 21 10:00 AM — May 6 10:00 AM, Cranbrook, Weather by CustomWeather, © 2016

Note: Actual official high and low records may vary slightly from our data, if they occured in-between our weather recording intervals... More about our weather records

Advertising

Cranbrook Weather History for the Previous 24 Hours

Scroll right to see more
 ConditionsComfort  
Time TempWeatherWind HumidityBarometerVisibility
10:00 AM
Fri, May 6
57 °FBroken clouds.13 mph55%30.24 "Hg25 mi
9:00 AM55 °FBroken clouds.8 mph63%30.24 "Hg25 mi
8:00 AM52 °FPassing clouds.8 mph72%30.23 "Hg25 mi
7:00 AM50 °FPartly cloudy.5 mph82%30.21 "Hg25 mi
6:00 AM50 °FPassing clouds.2 mph82%30.18 "Hg25 mi
5:00 AM50 °FPartly cloudy.3 mph82%30.16 "Hg25 mi
4:00 AM48 °FPassing clouds.3 mph87%30.15 "Hg25 mi
3:00 AM50 °FPartly cloudy.No wind82%30.12 "Hg25 mi
2:00 AM52 °FPartly cloudy.7 mph77%30.10 "Hg25 mi
1:00 AM52 °FPassing clouds.5 mph77%30.10 "Hg25 mi
12:00 AM52 °FPassing clouds.6 mph77%30.07 "Hg25 mi
11:00 PM
Thu, May 5
54 °FScattered clouds.5 mph72%30.07 "Hg25 mi
10:00 PM54 °FPartly sunny.8 mph77%30.05 "Hg25 mi
9:00 PM55 °FPartly sunny.13 mph72%30.02 "Hg25 mi
8:00 PM57 °FSprinkles. Broken clouds.14 mph72%29.98 "Hg25 mi
7:49 PM59 °FSprinkles. Broken clouds.13 mph68%29.98 "Hg25 mi
7:00 PM61 °FBroken clouds.15 mph63%29.96 "Hg25 mi
6:00 PM64 °FBroken clouds.10 mph56%29.94 "Hg25 mi
5:00 PM66 °FBroken clouds.6 mph52%29.93 "Hg25 mi
4:00 PM64 °FBroken clouds.5 mph60%29.93 "Hg25 mi
3:00 PM63 °FPartly sunny.No wind56%29.95 "Hg25 mi
2:00 PM63 °FPartly sunny.3 mph59%29.95 "Hg25 mi
1:00 PM59 °FPartly sunny.2 mph72%29.96 "Hg25 mi
12:00 PM57 °FPartly sunny.2 mph77%29.96 "Hg15 mi
11:00 AM54 °FMore clouds than sun.6 mph88%29.97 "Hg15 mi
Weather by CustomWeather, © 2016

See weather overviewHow to use our weather pages